801  
ASUS41 KCLE 211612  
RWRCLE  
OHIO REGIONAL WEATHER ROUNDUP  
NATIONAL WEATHER SERVICE WILMINGTON, OH  
1100 AM EST MON JAN 21 2019  
 
NOTE: "FAIR" INDICATES FEW OR NO CLOUDS BELOW 12,000 FEET WITH NO  
SIGNIFICANT WEATHER AND/OR S TO VISIBILITY
.  
 
OHZ001>008-015>018-024>027-034-035-043-044-211700-  
NORTHWEST OHIO  
 
CITY SKY/WX TMP DP RH WIND PRES REMARKS
 
DEFIANCE FAIR 1 -11 57 CALM 30.61R  
FINDLAY FAIR -1 -11 62 W3 30.58R  
TOLEDO EXPRESS FAIR 0 -12 57 NW5 30.60R WCI -10  
TOLEDO EXEC FAIR 2 -8 63 NW7 30.60R WCI -11  
LIMA FAIR -1 -11 62 CALM 30.58R  

 
 
OHZ009>014-019>023-028>033-038-089-211700-  
NORTHEAST OHIO  
 
CITY SKY/WX TMP DP RH WIND PRES REMARKS
 
CLE-HOPKINS LGT SNOW 12 4 70 NW10 30.54R WCI -1  
CLE-LAKEFRONT LGT SNOW 13 5 70 NW15G22 30.53R WCI -3  
CUY CO. ARPT LGT SNOW 10 3 72 N9 30.50R WCI -2  
LORAIN-ELYRIA CLOUDY 4 -4 69 NW10 30.55R WCI -11  
ASHTABULA MIX PCPN 10 2 69 N12G25 30.47R WCI -5  
AKRON-CANTON LGT SNOW 6 -1 73 W9 30.47R WCI -8  
WOOSTER LGT SNOW 3 -3 76 NW10 30.51R WCI -12  
MANSFIELD FAIR 0 -9 65 W3 30.51R  
YOUNGSTOWN LGT SNOW 8 1 73 N16 30.44R BLWGSNOWWCI -10  

 
 
OHZ042-051>053-060>062-070>072-077>081-211700-  
SOUTHWEST OHIO  
 
CITY SKY/WX TMP DP RH WIND PRES REMARKS
 
CINC-COVINGTON FAIR 9 -1 64 NE7 30.57S WCI -2  
CINC-LUNKEN FAIR 9 -2 61 E5 30.65R WCI 1  
HAMILTON FAIR 7 -2 66 CALM 30.63S  
DAYTON FAIR 2 -8 63 NW3 30.59R  
WRIGHT-PAT AFB FAIR 2 -11 55 CALM 30.60R  
DAYTON GENERAL FAIR 5 4 95 CALM 30.58R  
WILMINGTON FAIR 2 -6 69 CALM 30.57R  

 
 
OHZ036-037-039>041-045>050-054>059-063>069-073>076-082>088-211700-  
CENTRAL AND SOUTHEAST OHIO  
 
CITY SKY/WX TMP DP RH WIND PRES REMARKS
 
COLUMBUS FAIR 3 -8 60 CALM 30.59R  
OSU AIRPORT FAIR 2 -7 66 CALM 30.58R  
BOLTON FIELD SUNNY 1 -8 66 CALM 30.58R  
RICKENBACK AFB FAIR 2 -9 59 CALM 30.60R  
NEWARK FAIR 3 -5 69 SW3 30.57R  
MARION FAIR -2 -12 62 N3 30.57R  
LANCASTER FAIR 4 -6 63 N5 30.59R WCI -5  
ZANESVILLE FAIR 4 -5 66 NW3 30.56R  
NEW PHILLY FAIR 5 -3 69 W6 30.54R WCI -6  

 
 
 
CLICK HERE TO GO TO PREVIOUS BULLETINS.

The Nexlab OH Page
The Nexlab PA Page Main Text Page